| time (UTC) | temp C | wind direction | speed KPH | gust KPH | rain 1hr cm | rain 24hr cm | rain mn cm | humidity % | barometer mb |
| 20260506191542 | 17 | 270 | 4.8 | 11.3 | 0.00 | 0.00 | 0.00 | 49 | 1013.7 |
| 20260506190602 | 17 | 293 | 6.4 | 12.9 | 0.00 | 0.00 | 0.00 | 49 | 1013.8 |
| 20260506185622 | 17 | 270 | 6.4 | 14.5 | 0.00 | 0.00 | 0.00 | 47 | 1013.8 |
| 20260506184541 | 16 | 338 | 4.8 | 11.3 | 0.00 | 0.00 | 0.00 | 50 | 1014.0 |
| 20260506183542 | 16 | 270 | 4.8 | 11.3 | 0.00 | 0.00 | 0.00 | 50 | 1014.1 |
| 20260506182542 | 16 | 270 | 4.8 | 12.9 | 0.00 | 0.00 | 0.00 | 49 | 1014.1 |
| 20260506181541 | 17 | 270 | 4.8 | 12.9 | 0.00 | 0.00 | 0.00 | 48 | 1014.3 |
| 20260506180542 | 16 | 270 | 3.2 | 14.5 | 0.00 | 0.00 | 0.00 | 48 | 1014.3 |
| 20260506175541 | 17 | 293 | 4.8 | 11.3 | 0.00 | 0.00 | 0.00 | 48 | 1014.4 |
| 20260506174541 | 17 | 90 | 1.6 | 4.8 | 0.00 | 0.00 | 0.00 | 40 | 1014.7 |
| 20260506173545 | 17 | 0.0 | 0.0 | 0.00 | 0.00 | 0.00 | 47 | 1014.8 | |
| 20260506172541 | 17 | 0.0 | 1.6 | 0.00 | 0.00 | 0.00 | 47 | 1014.9 | |
| 20260506171602 | 16 | 180 | 3.2 | 6.4 | 0.00 | 0.00 | 0.00 | 45 | 1015.0 |
| 20260506170541 | 15 | 158 | 1.6 | 6.4 | 0.00 | 0.00 | 0.00 | 49 | 1014.8 |
| 20260506165541 | 15 | 0.0 | 1.6 | 0.00 | 0.00 | 0.00 | 50 | 1014.9 | |
| 20260506164541 | 14 | 0.0 | 3.2 | 0.00 | 0.00 | 0.00 | 52 | 1015.1 | |
| 20260506163541 | 13 | 158 | 1.6 | 6.4 | 0.00 | 0.00 | 0.00 | 52 | 1015.0 |
| 20260506162541 | 13 | 0.0 | 0.0 | 0.00 | 0.00 | 0.00 | 55 | 1015.2 | |
| 20260506161601 | 12 | 0.0 | 3.2 | 0.00 | 0.00 | 0.00 | 62 | 1015.4 | |
| 20260506160601 | 12 | 0.0 | 3.2 | 0.00 | 0.00 | 0.00 | 60 | 1015.5 | |
| 20260506155541 | 11 | 0.0 | 3.2 | 0.00 | 0.00 | 0.00 | 65 | 1015.4 | |
| 20260506154541 | 11 | 0.0 | 3.2 | 0.00 | 0.00 | 0.00 | 66 | 1015.8 | |
| 20260506153601 | 10 | 158 | 3.2 | 8.0 | 0.00 | 0.00 | 0.00 | 65 | 1015.6 |
| 20260506152541 | 10 | 0.0 | 3.2 | 0.00 | 0.00 | 0.00 | 73 | 1015.9 | |
| 20260506151542 | 8 | 293 | 1.6 | 3.2 | 0.00 | 0.00 | 0.00 | 78 | 1015.8 |
| 20260506150541 | 7 | 293 | 1.6 | 3.2 | 0.00 | 0.00 | 0.00 | 82 | 1015.7 |
| 20260506145541 | 6 | 0.0 | 1.6 | 0.00 | 0.00 | 0.00 | 86 | 1015.6 | |
| 20260506144541 | 5 | 0.0 | 1.6 | 0.00 | 0.00 | 0.00 | 89 | 1015.8 | |
| 20260506143542 | 4 | 293 | 1.6 | 3.2 | 0.00 | 0.00 | 0.00 | 89 | 1015.7 |
| 20260506142541 | 4 | 293 | 1.6 | 1.6 | 0.00 | 0.00 | 0.00 | 89 | 1015.7 |
| 20260506141541 | 4 | 293 | 1.6 | 3.2 | 0.00 | 0.00 | 0.00 | 89 | 1015.8 |
| 20260506140541 | 4 | 293 | 1.6 | 3.2 | 0.00 | 0.00 | 0.00 | 89 | 1015.6 |
| 20260506135541 | 3 | 0.0 | 0.0 | 0.00 | 0.00 | 0.00 | 89 | 1015.6 | |
| 20260506134541 | 3 | 0.0 | 0.0 | 0.00 | 0.00 | 0.00 | 89 | 1016.4 | |
| 20260506133541 | 3 | 0.0 | 1.6 | 0.00 | 0.00 | 0.00 | 89 | 1016.4 | |
| 20260506132540 | 3 | 0.0 | 0.0 | 0.00 | 0.00 | 0.00 | 89 | 1016.4 | |
| 20260506131601 | 3 | 293 | 1.6 | 3.2 | 0.00 | 0.00 | 0.00 | 90 | 1016.7 |
| 20260506130540 | 3 | 0.0 | 0.0 | 0.00 | 0.00 | 0.00 | 90 | 1016.5 | |
| 20260506125541 | 3 | 0.0 | 1.6 | 0.00 | 0.00 | 0.00 | 91 | 1016.2 | |
| 20260506124541 | 3 | 0.0 | 0.0 | 0.00 | 0.00 | 0.00 | 91 | 1016.4 | |
| 20260506123541 | 3 | 0.0 | 0.0 | 0.00 | 0.00 | 0.00 | 89 | 1016.3 | |
| 20260506122541 | 3 | 0.0 | 0.0 | 0.00 | 0.00 | 0.00 | 90 | 1016.3 | |
| 20260506121540 | 3 | 0.0 | 0.0 | 0.00 | 0.00 | 0.00 | 89 | 1016.4 | |
| 20260506120541 | 3 | 0.0 | 0.0 | 0.00 | 0.00 | 0.00 | 89 | 1016.4 | |
| 20260506115540 | 3 | 0.0 | 0.0 | 0.00 | 0.00 | 0.00 | 89 | 1016.4 | |
| 20260506114540 | 3 | 0.0 | 0.0 | 0.00 | 0.00 | 0.00 | 90 | 1016.3 | |
| 20260506113541 | 3 | 0.0 | 0.0 | 0.00 | 0.00 | 0.00 | 90 | 1016.2 | |
| 20260506112541 | 3 | 0.0 | 0.0 | 0.00 | 0.00 | 0.00 | 89 | 1016.2 | |
| 20260506111540 | 3 | 0.0 | 0.0 | 0.00 | 0.00 | 0.00 | 89 | 1016.2 | |
| 20260506110600 | 3 | 0.0 | 1.6 | 0.00 | 0.00 | 0.00 | 89 | 1016.1 | |
| 20260506105540 | 3 | 0.0 | 0.0 | 0.00 | 0.00 | 0.00 | 88 | 1016.0 | |
| 20260506104620 | 3 | 0.0 | 1.6 | 0.00 | 0.00 | 0.00 | 87 | 1016.1 | |
| 20260506103542 | 3 | 0.0 | 0.0 | 0.00 | 0.00 | 0.00 | 88 | 1016.0 | |
| 20260506102542 | 3 | 0.0 | 0.0 | 0.00 | 0.00 | 0.00 | 88 | 1016.1 | |
| 20260506101543 | 3 | 0.0 | 0.0 | 0.00 | 0.00 | 0.00 | 87 | 1016.0 | |
| 20260506100543 | 3 | 0.0 | 1.6 | 0.00 | 0.00 | 0.00 | 87 | 1015.8 | |
| 20260506095542 | 4 | 0.0 | 1.6 | 0.00 | 0.00 | 0.00 | 86 | 1015.8 | |
| 20260506094542 | 4 | 0.0 | 0.0 | 0.00 | 0.00 | 0.00 | 86 | 1015.8 | |
| 20260506093542 | 4 | 0.0 | 0.0 | 0.00 | 0.00 | 0.00 | 86 | 1015.8 | |
| 20260506092542 | 4 | 0.0 | 1.6 | 0.00 | 0.00 | 0.00 | 85 | 1016.0 | |
| 20260506091542 | 4 | 0.0 | 0.0 | 0.00 | 0.00 | 0.00 | 87 | 1015.9 | |
| 20260506090543 | 5 | 0.0 | 0.0 | 0.00 | 0.00 | 0.00 | 85 | 1016.2 | |
| 20260506085542 | 5 | 0.0 | 1.6 | 0.00 | 0.00 | 0.00 | 84 | 1016.1 | |
| 20260506084542 | 5 | 0.0 | 1.6 | 0.00 | 0.00 | 0.00 | 84 | 1016.0 | |
| 20260506083543 | 5 | 0.0 | 0.0 | 0.00 | 0.00 | 0.00 | 84 | 1015.7 | |
| 20260506082602 | 5 | 0.0 | 0.0 | 0.00 | 0.00 | 0.00 | 85 | 1015.7 | |
| 20260506081542 | 5 | 0.0 | 0.0 | 0.00 | 0.00 | 0.00 | 84 | 1015.5 | |
| 20260506080542 | 5 | 0.0 | 0.0 | 0.00 | 0.00 | 0.00 | 85 | 1015.5 | |
| 20260506072542 | 5 | 0.0 | 0.0 | 0.00 | 0.00 | 0.00 | 82 | 1015.1 | |
| 20260506071542 | 5 | 0.0 | 0.0 | 0.00 | 0.00 | 0.00 | 81 | 1015.0 | |
| 20260506070542 | 5 | 0.0 | 0.0 | 0.00 | 0.00 | 0.00 | 81 | 1014.8 | |
| 20260506061541 | 6 | 0.0 | 1.6 | 0.00 | 0.00 | 0.00 | 78 | 1014.7 | |
| 20260506060541 | 6 | 0.0 | 0.0 | 0.00 | 0.00 | 0.00 | 78 | 1014.5 | |
| 20260506050541 | 7 | 293 | 1.6 | 4.8 | 0.00 | 0.00 | 0.00 | 74 | 1014.1 |
| 20260506044542 | 8 | 0.0 | 0.0 | 0.00 | 0.00 | 0.00 | 71 | 1013.8 | |
| 20260506043542 | 8 | 0.0 | 0.0 | 0.00 | 0.00 | 0.00 | 72 | 1013.6 | |
| 20260506042542 | 8 | 0.0 | 0.0 | 0.00 | 0.00 | 0.00 | 72 | 1013.5 | |
| 20260506041543 | 8 | 0.0 | 1.6 | 0.00 | 0.00 | 0.00 | 71 | 1013.4 | |
| 20260506040543 | 9 | 293 | 3.2 | 4.8 | 0.00 | 0.00 | 0.00 | 71 | 1013.4 |
| 20260506035542 | 10 | 293 | 1.6 | 3.2 | 0.00 | 0.00 | 0.00 | 70 | 1013.3 |
| 20260506034542 | 10 | 315 | 1.6 | 3.2 | 0.00 | 0.00 | 0.00 | 71 | 1013.4 |
| 20260506033542 | 10 | 315 | 1.6 | 3.2 | 0.00 | 0.00 | 0.00 | 70 | 1013.0 |
| 20260506032542 | 10 | 315 | 1.6 | 4.8 | 0.00 | 0.00 | 0.00 | 70 | 1013.0 |
| 20260506031542 | 11 | 315 | 1.6 | 3.2 | 0.00 | 0.00 | 0.00 | 69 | 1013.0 |
| 20260506030602 | 11 | 315 | 1.6 | 3.2 | 0.00 | 0.00 | 0.00 | 69 | 1012.4 |
| 20260506025542 | 11 | 315 | 1.6 | 3.2 | 0.00 | 0.00 | 0.00 | 67 | 1012.4 |
| 20260506024542 | 12 | 315 | 3.2 | 4.8 | 0.00 | 0.00 | 0.00 | 67 | 1012.3 |
| 20260506023602 | 12 | 293 | 3.2 | 6.4 | 0.00 | 0.00 | 0.00 | 64 | 1012.3 |
| 20260506022542 | 12 | 293 | 3.2 | 4.8 | 0.00 | 0.00 | 0.00 | 61 | 1012.3 |
| 20260506021542 | 13 | 270 | 3.2 | 3.2 | 0.00 | 0.00 | 0.00 | 60 | 1012.4 |
| 20260506020542 | 13 | 270 | 3.2 | 4.8 | 0.00 | 0.00 | 0.00 | 58 | 1012.4 |
| 20260506015603 | 13 | 270 | 3.2 | 4.8 | 0.00 | 0.00 | 0.00 | 56 | 1012.4 |
| 20260506014542 | 14 | 270 | 4.8 | 6.4 | 0.00 | 0.00 | 0.00 | 54 | 1012.5 |
| 20260506013622 | 15 | 270 | 3.2 | 6.4 | 0.00 | 0.00 | 0.00 | 51 | 1012.6 |
| 20260506012542 | 16 | 270 | 4.8 | 6.4 | 0.00 | 0.00 | 0.00 | 47 | 1012.8 |
| 20260506011542 | 18 | 270 | 3.2 | 6.4 | 0.00 | 0.00 | 0.00 | 38 | 1013.0 |
| 20260506010542 | 19 | 0.0 | 3.2 | 0.00 | 0.00 | 0.00 | 37 | 1013.2 | |
| 20260506005602 | 20 | 270 | 3.2 | 6.4 | 0.00 | 0.00 | 0.00 | 34 | 1013.4 |
| 20260506004542 | 20 | 293 | 1.6 | 4.8 | 0.00 | 0.00 | 0.00 | 32 | 1013.5 |
| 20260506003542 | 21 | 315 | 1.6 | 4.8 | 0.00 | 0.00 | 0.00 | 30 | 1013.6 |
| 20260506002542 | 21 | 270 | 4.8 | 11.3 | 0.00 | 0.00 | 0.00 | 29 | 1013.6 |
| 20260506001542 | 21 | 270 | 6.4 | 12.9 | 0.00 | 0.00 | 0.00 | 28 | 1013.6 |
| 20260506000542 | 21 | 315 | 4.8 | 12.9 | 0.00 | 0.00 | 0.00 | 26 | 1014.0 |
| 20260505235542 | 22 | 270 | 6.4 | 12.9 | 0.00 | 0.00 | 0.00 | 25 | 1014.1 |
| 20260505234542 | 22 | 338 | 6.4 | 16.1 | 0.00 | 0.00 | 0.00 | 24 | 1014.1 |
| 20260505233542 | 22 | 293 | 4.8 | 14.5 | 0.00 | 0.00 | 0.00 | 26 | 1014.4 |
| 20260505232542 | 22 | 270 | 4.8 | 9.7 | 0.00 | 0.00 | 0.00 | 23 | 1014.3 |
| 20260505231542 | 22 | 338 | 4.8 | 12.9 | 0.00 | 0.00 | 0.00 | 26 | 1014.5 |
| 20260505230542 | 22 | 293 | 4.8 | 11.3 | 0.00 | 0.00 | 0.00 | 24 | 1014.7 |
| 20260505225601 | 22 | 338 | 6.4 | 14.5 | 0.00 | 0.00 | 0.00 | 24 | 1014.8 |
| 20260505224541 | 22 | 338 | 4.8 | 11.3 | 0.00 | 0.00 | 0.00 | 23 | 1014.9 |
| 20260505223542 | 22 | 0 | 6.4 | 12.9 | 0.00 | 0.00 | 0.00 | 21 | 1014.9 |
| 20260505222541 | 22 | 338 | 8.0 | 14.5 | 0.00 | 0.00 | 0.00 | 24 | 1015.1 |
| 20260505221601 | 22 | 293 | 6.4 | 12.9 | 0.00 | 0.00 | 0.00 | 24 | 1015.2 |
| 20260505220622 | 22 | 338 | 6.4 | 12.9 | 0.00 | 0.00 | 0.00 | 24 | 1015.3 |
| 20260505215542 | 21 | 338 | 6.4 | 19.3 | 0.00 | 0.00 | 0.00 | 25 | 1015.4 |
| 20260505214541 | 21 | 0 | 8.0 | 17.7 | 0.00 | 0.00 | 0.00 | 26 | 1015.4 |
| 20260505213541 | 21 | 338 | 6.4 | 14.5 | 0.00 | 0.00 | 0.00 | 29 | 1015.5 |
| 20260505212541 | 22 | 248 | 4.8 | 14.5 | 0.00 | 0.00 | 0.00 | 28 | 1015.7 |
| 20260505211602 | 21 | 270 | 4.8 | 12.9 | 0.00 | 0.00 | 0.00 | 29 | 1015.7 |
| 20260505210541 | 21 | 270 | 8.0 | 14.5 | 0.00 | 0.00 | 0.00 | 30 | 1015.8 |
| 20260505205541 | 21 | 270 | 8.0 | 17.7 | 0.00 | 0.00 | 0.00 | 29 | 1015.8 |
| 20260505204601 | 20 | 270 | 8.0 | 17.7 | 0.00 | 0.00 | 0.00 | 32 | 1015.8 |
| 20260505203542 | 20 | 315 | 6.4 | 16.1 | 0.00 | 0.00 | 0.00 | 30 | 1016.0 |
| 20260505202542 | 20 | 270 | 8.0 | 17.7 | 0.00 | 0.00 | 0.00 | 30 | 1016.0 |
| 20260505201541 | 20 | 270 | 9.7 | 20.9 | 0.00 | 0.00 | 0.00 | 30 | 1015.9 |
| 20260505200542 | 20 | 270 | 8.0 | 16.1 | 0.00 | 0.00 | 0.00 | 29 | 1016.0 |
| 20260505195542 | 20 | 293 | 8.0 | 22.5 | 0.00 | 0.00 | 0.00 | 32 | 1016.0 |
| 20260505194541 | 19 | 270 | 9.7 | 16.1 | 0.00 | 0.00 | 0.00 | 33 | 1016.1 |
| 20260505193602 | 19 | 270 | 6.4 | 16.1 | 0.00 | 0.00 | 0.00 | 35 | 1016.3 |
| 20260505192541 | 18 | 293 | 6.4 | 16.1 | 0.00 | 0.00 | 0.00 | 36 | 1016.4 |